{"data":{"norad_id":68285,"intl_designator":"2026-055Z","name":"STARLINK-36725","alt_names":[],"object_type":"PAYLOAD","status":"ACTIVE","operator":null,"country":"US","launch_date":"2026-03-19","launch_site_code":"AFETR","launch_vehicle":null,"mission":null,"orbit_class":"UNKNOWN","rcs_meters":null,"size_class":null,"mass_kg":null,"dimensions":null,"purposes":["comms"],"wikipedia_slug":null,"has_3d_model":false,"image_url":null,"decayed_at":null,"tle_current":{"epoch":"2026-05-24T15:40:21.220896Z","epoch_age_seconds":105112,"freshness":"FRESH","line1":"1 68285U 26055Z   26144.65302339  .00013252  00000+0  45876-3 0  9990","line2":"2 68285  53.1592 326.9624 0001052  27.6805 332.4252 15.30200539 11555","mean_motion":15.30200539,"eccentricity":0.0001052,"inclination_deg":53.1592,"raan_deg":326.9624,"arg_perigee_deg":27.6805,"mean_anomaly_deg":332.4252,"bstar":0.00045876,"rev_number":1155,"period_min":94.105312558644,"perigee_km":474.49248759455,"apogee_km":475.93443253135,"semimajor_km":6853.350460063,"source":"CELESTRAK","updated_at":"2026-05-25T13:38:21.895133Z"}}}